TimeCDT,TemperatureF,Dew PointF,Humidity,Sea Level PressureIn,VisibilityMPH,Wind Direction,Wind SpeedMPH,Gust SpeedMPH,PrecipitationIn,Events,Conditions,WindDirDegrees,DateUTC
12:53 AM,59.0,51.1,75,30.12,10.0,North,9.2,-,N/A,,Clear,350,2012-10-09 05:53:00
1:53 AM,57.9,51.1,78,30.11,10.0,North,8.1,-,N/A,,Clear,360,2012-10-09 06:53:00
3:17 AM,57.2,50.0,77,30.10,10.0,North,6.9,-,N/A,,Clear,350,2012-10-09 08:17:00
3:53 AM,55.0,50.0,83,30.10,10.0,NNW,5.8,-,N/A,,Clear,340,2012-10-09 08:53:00
4:53 AM,54.0,50.0,86,30.10,10.0,NNW,4.6,-,N/A,,Clear,340,2012-10-09 09:53:00
5:53 AM,54.0,50.0,86,30.12,10.0,NNW,5.8,-,N/A,,Clear,330,2012-10-09 10:53:00
6:53 AM,53.1,50.0,89,30.12,10.0,NNW,6.9,-,N/A,,Clear,340,2012-10-09 11:53:00
7:53 AM,55.9,51.1,84,30.13,10.0,NNW,6.9,-,N/A,,Clear,340,2012-10-09 12:53:00
8:53 AM,60.1,52.0,75,30.15,10.0,NNE,6.9,-,N/A,,Clear,30,2012-10-09 13:53:00
9:53 AM,66.0,53.1,63,30.16,10.0,North,4.6,-,N/A,,Clear,360,2012-10-09 14:53:00
10:53 AM,70.0,54.0,57,30.15,10.0,NNE,5.8,-,N/A,,Clear,20,2012-10-09 15:53:00
11:53 AM,72.0,54.0,53,30.14,10.0,NNW,6.9,-,N/A,,Clear,340,2012-10-09 16:53:00
12:53 PM,75.0,55.0,50,30.10,10.0,WNW,5.8,-,N/A,,Clear,300,2012-10-09 17:53:00
1:53 PM,78.1,55.0,45,30.07,10.0,Variable,5.8,-,N/A,,Clear,0,2012-10-09 18:53:00
2:53 PM,78.1,54.0,43,30.06,10.0,Variable,5.8,-,N/A,,Clear,0,2012-10-09 19:53:00
3:53 PM,78.1,55.0,45,30.04,10.0,Calm,Calm,-,N/A,,Clear,0,2012-10-09 20:53:00
4:53 PM,77.0,55.9,48,30.04,10.0,SE,3.5,-,N/A,,Clear,140,2012-10-09 21:53:00
5:53 PM,73.0,59.0,61,30.04,10.0,Calm,Calm,-,N/A,,Clear,0,2012-10-09 22:53:00
6:53 PM,64.9,60.1,84,30.05,10.0,SSW,3.5,-,N/A,,Clear,210,2012-10-09 23:53:00
7:53 PM,64.0,59.0,84,30.06,10.0,SW,3.5,-,N/A,,Clear,220,2012-10-10 00:53:00
8:53 PM,62.1,57.9,86,30.08,10.0,Calm,Calm,-,N/A,,Clear,0,2012-10-10 01:53:00
9:53 PM,61.0,57.9,90,30.09,10.0,Calm,Calm,-,N/A,,Clear,0,2012-10-10 02:53:00
10:53 PM,59.0,55.9,90,30.10,9.0,WSW,3.5,-,N/A,,Clear,240,2012-10-10 03:53:00
11:53 PM,60.1,57.0,90,30.09,10.0,Calm,Calm,-,N/A,,Clear,0,2012-10-10 04:53:00